When you browse on this site, cookies collect data to enhance your experience and personalize the content and advertising you see.
Visit our Privacy Policy to learn more. By continuing to use the site, you agree to this use of cookies and data.
  • In Hungary
  • List of Countries
  • For 7 days
  • Water Temperature
  • Weather Map
  • News
  • Weather Widgets
  • user-avatar
    Login

    Hourly Weather Zelenyi Dub

    Today, 20 August, Tuesday

    Time Temperature Precipitation Wind Pressure Humidity
    00:00 +20°C° 0 mm 2 mps 737 mmHg 73%
    01:00 +20°C° 0 mm 2 mps 737 mmHg 71%
    02:00 +20°C° 0 mm 2 mps 737 mmHg 70%
    03:00 +20°C° 0 mm 2 mps 737 mmHg 69%
    04:00 +19°C° 0 mm 2 mps 738 mmHg 68%
    05:00 +19°C° 0 mm 2 mps 738 mmHg 67%
    06:00 +20°C° 0 mm 2 mps 738 mmHg 65%
    07:00 +21°C° 0 mm 2 mps 738 mmHg 63%
    08:00 +24°C° 0 mm 2 mps 739 mmHg 63%
    09:00 +25°C° 0.1 mm 2 mps 739 mmHg 59%
    10:00 +27°C° 0.1 mm 2 mps 739 mmHg 56%
    11:00 +28°C° 0.1 mm 2 mps 739 mmHg 52%
    12:00 +29°C° 0 mm 2 mps 739 mmHg 51%
    13:00 +30°C° 0 mm 2 mps 739 mmHg 49%
    14:00 +31°C° 0 mm 2 mps 740 mmHg 46%
    15:00 +31°C° 0 mm 2 mps 740 mmHg 49%
    16:00 +31°C° 0 mm 2 mps 739 mmHg 51%
    17:00 +30°C° 0 mm 2 mps 739 mmHg 54%
    18:00 +28°C° 0 mm 2 mps 739 mmHg 56%
    19:00 +26°C° 0 mm 2 mps 739 mmHg 58%
    20:00 +24°C° 0 mm 2 mps 739 mmHg 60%
    21:00 +24°C° 0 mm 2 mps 739 mmHg 60%
    22:00 +23°C° 0 mm 2 mps 739 mmHg 61%
    23:00 +21°C° 0 mm 2 mps 739 mmHg 61%

    Tomorrow, 21 August, Wednesday

    Time Temperature Precipitation Wind Pressure Humidity
    00:00 +21°C° 0 mm 2 mps 739 mmHg 61%
    01:00 +21°C° 0 mm 2 mps 739 mmHg 61%
    02:00 +20°C° 0 mm 3 mps 739 mmHg 61%
    03:00 +20°C° 0 mm 3 mps 739 mmHg 61%
    04:00 +19°C° 0 mm 3 mps 739 mmHg 61%
    05:00 +19°C° 0 mm 3 mps 739 mmHg 61%
    06:00 +20°C° 0 mm 3 mps 739 mmHg 60%
    07:00 +21°C° 0 mm 3 mps 739 mmHg 59%
    08:00 +22°C° 0 mm 4 mps 739 mmHg 58%
    09:00 +25°C° 0 mm 4 mps 739 mmHg 54%
    10:00 +27°C° 0 mm 4 mps 739 mmHg 51%
    11:00 +29°C° 0 mm 4 mps 739 mmHg 47%
    12:00 +30°C° 0 mm 4 mps 739 mmHg 45%
    13:00 +32°C° 0 mm 4 mps 739 mmHg 42%
    14:00 +31°C° 0 mm 3 mps 739 mmHg 39%
    15:00 +31°C° 0.1 mm 3 mps 739 mmHg 44%
    16:00 +31°C° 0.1 mm 3 mps 739 mmHg 48%
    17:00 +30°C° 0.1 mm 2 mps 739 mmHg 53%
    18:00 +28°C° 0.2 mm 3 mps 739 mmHg 65%
    19:00 +25°C° 0.2 mm 4 mps 739 mmHg 77%
    20:00 +21°C° 0.2 mm 5 mps 740 mmHg 89%
    21:00 +20°C° 0.3 mm 5 mps 740 mmHg 90%
    22:00 +20°C° 0.3 mm 5 mps 740 mmHg 91%
    23:00 +19°C° 0.3 mm 4 mps 740 mmHg 91%

    Day after tomorrow, 22 August, Thursday

    Time Temperature Precipitation Wind Pressure Humidity
    00:00 +18°C° 0 mm 4 mps 741 mmHg 90%
    01:00 +16°C° 0 mm 5 mps 741 mmHg 89%
    02:00 +16°C° 0 mm 5 mps 741 mmHg 88%
    03:00 +15°C° 0.1 mm 5 mps 741 mmHg 89%
    04:00 +15°C° 0.1 mm 4 mps 741 mmHg 89%
    05:00 +15°C° 0.1 mm 4 mps 741 mmHg 89%
    06:00 +15°C° 0.2 mm 4 mps 742 mmHg 90%
    07:00 +15°C° 0.2 mm 4 mps 742 mmHg 90%
    08:00 +15°C° 0.2 mm 4 mps 742 mmHg 90%
    09:00 +15°C° 0 mm 4 mps 743 mmHg 87%
    10:00 +17°C° 0 mm 4 mps 743 mmHg 85%
    11:00 +17°C° 0 mm 4 mps 743 mmHg 82%
    12:00 +18°C° 0 mm 4 mps 743 mmHg 79%
    13:00 +19°C° 0 mm 4 mps 743 mmHg 75%
    14:00 +20°C° 0 mm 4 mps 743 mmHg 72%
    15:00 +20°C° 0 mm 4 mps 743 mmHg 71%
    16:00 +20°C° 0 mm 3 mps 742 mmHg 70%
    17:00 +21°C° 0 mm 3 mps 742 mmHg 69%
    18:00 +20°C° 0 mm 3 mps 742 mmHg 74%
    19:00 +18°C° 0 mm 2 mps 742 mmHg 78%
    20:00 +17°C° 0 mm 2 mps 743 mmHg 83%
    21:00 +17°C° 0 mm 2 mps 743 mmHg 84%
    22:00 +16°C° 0 mm 2 mps 743 mmHg 85%
    23:00 +16°C° 0 mm 2 mps 743 mmHg 86%

    23 August, Friday

    Time Temperature Precipitation Wind Pressure Humidity
    00:00 +16°C° 0 mm 2 mps 743 mmHg 87%
    01:00 +15°C° 0 mm 2 mps 742 mmHg 88%
    02:00 +15°C° 0 mm 2 mps 742 mmHg 88%
    03:00 +15°C° 0 mm 2 mps 742 mmHg 90%
    04:00 +14°C° 0 mm 2 mps 742 mmHg 91%
    05:00 +14°C° 0 mm 2 mps 742 mmHg 93%
    06:00 +15°C° 0 mm 2 mps 743 mmHg 88%
    07:00 +16°C° 0 mm 3 mps 743 mmHg 84%
    08:00 +17°C° 0 mm 3 mps 743 mmHg 79%
    09:00 +19°C° 0 mm 3 mps 743 mmHg 73%
    10:00 +20°C° 0 mm 4 mps 743 mmHg 67%
    11:00 +22°C° 0 mm 4 mps 744 mmHg 60%
    12:00 +22°C° 0 mm 4 mps 743 mmHg 57%
    13:00 +23°C° 0 mm 4 mps 743 mmHg 54%
    14:00 +25°C° 0 mm 4 mps 743 mmHg 51%
    15:00 +25°C° 0 mm 3 mps 743 mmHg 53%
    16:00 +24°C° 0 mm 3 mps 743 mmHg 54%
    17:00 +24°C° 0 mm 3 mps 743 mmHg 55%
    18:00 +21°C° 0 mm 3 mps 743 mmHg 62%
    19:00 +19°C° 0 mm 3 mps 743 mmHg 69%
    20:00 +17°C° 0 mm 3 mps 743 mmHg 76%
    21:00 +16°C° 0 mm 2 mps 743 mmHg 79%
    22:00 +16°C° 0 mm 2 mps 743 mmHg 81%
    23:00 +15°C° 0 mm 2 mps 743 mmHg 84%

    24 August, Saturday

    Time Temperature Precipitation Wind Pressure Humidity
    00:00 +14°C° 0 mm 2 mps 743 mmHg 85%
    01:00 +14°C° 0 mm 2 mps 743 mmHg 86%
    02:00 +13°C° 0 mm 2 mps 743 mmHg 87%
    03:00 +13°C° 0 mm 2 mps 743 mmHg 88%
    04:00 +13°C° 0 mm 2 mps 742 mmHg 89%
    05:00 +12°C° 0 mm 2 mps 742 mmHg 90%
    06:00 +14°C° 0 mm 2 mps 743 mmHg 85%
    07:00 +16°C° 0 mm 2 mps 743 mmHg 80%
    08:00 +17°C° 0 mm 3 mps 743 mmHg 75%
    09:00 +19°C° 0 mm 3 mps 743 mmHg 67%
    10:00 +21°C° 0 mm 3 mps 743 mmHg 59%
    11:00 +22°C° 0 mm 3 mps 743 mmHg 51%
    12:00 +24°C° 0 mm 3 mps 742 mmHg 48%
    13:00 +25°C° 0 mm 3 mps 742 mmHg 45%
    14:00 +25°C° 0 mm 2 mps 742 mmHg 42%
    15:00 +25°C° 0 mm 3 mps 742 mmHg 45%
    16:00 +25°C° 0 mm 3 mps 741 mmHg 48%
    17:00 +25°C° 0 mm 3 mps 741 mmHg 50%
    18:00 +22°C° 0 mm 3 mps 741 mmHg 56%
    19:00 +19°C° 0 mm 2 mps 741 mmHg 62%
    20:00 +17°C° 0 mm 2 mps 740 mmHg 68%
    21:00 +17°C° 0 mm 2 mps 740 mmHg 70%
    22:00 +16°C° 0 mm 2 mps 741 mmHg 72%
    23:00 +16°C° 0 mm 2 mps 741 mmHg 74%

    25 August, Sunday

    Time Temperature Precipitation Wind Pressure Humidity
    00:00 +15°C° 0 mm 2 mps 740 mmHg 75%
    01:00 +15°C° 0 mm 2 mps 740 mmHg 76%
    02:00 +14°C° 0 mm 2 mps 740 mmHg 77%
    03:00 +14°C° 0 mm 2 mps 740 mmHg 77%
    04:00 +14°C° 0 mm 2 mps 740 mmHg 77%
    05:00 +14°C° 0 mm 2 mps 740 mmHg 77%
    06:00 +15°C° 0 mm 2 mps 740 mmHg 75%
    07:00 +16°C° 0 mm 2 mps 740 mmHg 72%
    08:00 +18°C° 0 mm 2 mps 740 mmHg 70%
    09:00 +20°C° 0 mm 3 mps 741 mmHg 66%
    10:00 +22°C° 0 mm 3 mps 741 mmHg 62%
    11:00 +25°C° 0 mm 3 mps 741 mmHg 58%
    12:00 +25°C° 0 mm 3 mps 741 mmHg 55%
    13:00 +26°C° 0 mm 3 mps 741 mmHg 52%
    14:00 +27°C° 0 mm 3 mps 741 mmHg 49%
    15:00 +27°C° 0 mm 3 mps 740 mmHg 51%
    16:00 +26°C° 0 mm 3 mps 740 mmHg 54%
    17:00 +26°C° 0 mm 3 mps 740 mmHg 56%
    18:00 +24°C° 0 mm 3 mps 740 mmHg 62%
    19:00 +21°C° 0 mm 3 mps 740 mmHg 67%
    20:00 +19°C° 0 mm 3 mps 740 mmHg 72%
    21:00 +18°C° 0 mm 3 mps 740 mmHg 71%
    22:00 +18°C° 0 mm 3 mps 740 mmHg 70%
    23:00 +17°C° 0 mm 3 mps 740 mmHg 69%
    Show more